Pila Airport

Jump to: basic info | weather | runways | comments

Related pages: nearby airports | nearby navaids | notams | map

Basic information (top)

Codes: EPPI
Location: lon 53.169998, lat 16.712500, elev 259 ft / 79 m msl
Status: small_airport

Weather (top)

Current conditions for Poznań-Ławica Airport 45nm (84km) S (rec'd 2014/11/29 09:00Z):

EPPO 290900Z 11014KT 6000 BKN011 M04/M07 Q1027

Airport forecast for Poznań-Ławica Airport 45nm (84km) S (rec'd 2014/11/29 06:35Z):

TAF EPPO 290530Z 2906/3006 09012KT 8000 SCT015 
      TEMPO 2906/3006 BKN010 PROB30 2906/2910 5000 BR

Runways (top)

03/21: 7,876 x 195 ft (2,401 x 59 m) — other (PEM) — lighted

Latest comments (top)

No comments yet for Pila Airport

More... (top)

See also NOTAMs and nearby airports and navaids, or visit the Pila Airport page at the main OurAirports website..